Weather in Nea Kallikratia

Greece     40°18′36″N   23°03′43″E
temp.,
°C
wind,
m/s
gust,
m/s
humid.,
%
clouds,
%
prec.,
mm/h
press.,
hPa
HPBL,
m
18 may, tue
tue1800:00+20e44695 0.0 100741
03:00+20e12730 0.0 100712
06:00+19nw34720 0.0 100796
09:00+20nw45690 0.0 1009146
12:00+22nw68610 0.0 1009130
15:00+23n685622 0.0 1010136
18:00+23n68504 0.0 1011110
21:00+22nne33566 0.0 101116
19 may, wed
wed1900:00+20nw22660 0.0 101326
03:00+20ese55690 0.0 1013152
06:00+19ese45735 0.0 1013254
09:00+19ese44755 0.0 1013297
12:00+20se34745 0.0 1013252
15:00+20se4476100 0.0 1011228
18:00+20se55738 0.0 1010209
21:00+20ese44765 0.0 100983
20 may, thu
thu2000:00+20e117513 0.0 100913
03:00+20wnw34751 0.0 100879
06:00+18nnw68780 0.0 1008240
09:00+19nw78705 0.0 1009307
12:00+20nw5661100 0.0 1009187
15:00+22nw5653100 0.0 1008163
18:00+20nnw12135795 0.0 1009512
21:00+19nnw101259100 0.0 1010636
21 may, fri
fri2100:00+18nnw10135928 0.1 10121001
03:00+18nnw131559100 0.1 10121284
06:00+16nnw131656100 0.0 10121341
09:00+16nnw13155792 0.0 10141510
12:00+17nnw1315552 0.0 10141707
15:00+19nnw10145343 0.0 10142265
18:00+21nnw12155017 0.0 10131175
21:00+20nnw1014550 0.0 10151213
22 may, sat
sat2200:00+19nnw710570 0.0 1016578
03:00+17nnw810610 0.0 1016381
06:00+17nnw811600 0.0 1016451
09:00+17nnw89620 0.0 1017432
12:00+19nw66530 0.0 1017385
15:00+20wsw44510 0.0 1015139
18:00+21s55560 0.0 1015162
21:00+20se77660 0.0 1016413